DW7368 Weather Reports


time (UTC)temp
C
wind
direction
speed
KPH
gust
KPH
rain 1hr
cm
rain 24hr
cm
rain mn
cm
humidity
%
barometer
mb
20260505051540 21 213 8.0 16.1 0.00 0.00 0.00 72 1012.1
20260505041548 21 224 4.8 12.9 0.00 0.00 0.00 71 1012.8
20260505040034 21 153 6.4 12.9 0.00 0.00 0.00 71 1012.7
20260505034536 20 177 6.4 12.9 0.00 0.00 0.00 71 1012.7
20260505033035 20 160 4.8 9.7 0.00 0.00 0.00 70 1012.5
20260505031534 20 212 6.4 12.9 0.00 0.00 0.00 70 1012.5
20260505030039 20 163 6.4 16.1 0.00 0.00 0.00 70 1012.3
20260505024533 20 192 6.4 11.3 0.00 0.00 0.00 70 1012.2
20260505023034 20 221 4.8 12.9 0.00 0.00 0.00 69 1012.3
20260505021533 20 170 4.8 8.0 0.00 0.00 0.00 69 1012.2
20260505020039 20 219 4.8 11.3 0.00 0.00 0.00 69 1012.3
20260505014538 20 159 3.2 11.3 0.00 0.00 0.00 68 1012.4
20260505013037 20 206 6.4 12.9 0.00 0.00 0.00 67 1012.3
20260505011535 20 168 4.8 11.3 0.00 0.00 0.00 67 1012.3
20260505010027 21 222 1.6 14.5 0.00 0.00 0.00 66 1012.3
20260505004539 21 156 3.2 9.7 0.00 0.00 0.00 65 1012.3
20260505003048 21 141 4.8 12.9 0.00 0.00 0.00 64 1012.6
20260505001525 22 203 4.8 12.9 0.00 0.00 0.00 63 1012.4
20260505000029 22 200 6.4 12.9 0.00 0.00 0.00 61 1012.5
20260504234521 23 213 6.4 14.5 0.00 0.00 0.00 60 1012.7
20260504233018 23 147 6.4 11.3 0.00 0.00 0.00 58 1013.0
20260504231518 23 175 3.2 16.1 0.00 0.00 0.00 57 1013.2
20260504230015 24 155 8.0 16.1 0.00 0.00 0.00 58 1013.0
20260504224518 24 187 9.7 19.3 0.00 0.00 0.00 56 1013.2
20260504223015 24 156 4.8 14.5 0.00 0.00 0.00 57 1013.4
20260504221510 23 203 4.8 20.9 0.00 0.00 0.00 57 1013.5
20260504220010 23 149 6.4 12.9 0.00 0.00 0.00 58 1013.6
20260504214508 23 215 4.8 16.1 0.00 0.00 0.00 59 1013.7
20260504213015 23 220 6.4 14.5 0.00 0.00 0.00 58 1014.2
20260504211511 24 171 6.4 14.5 0.00 0.00 0.00 56 1014.1
20260504210004 24 208 6.4 12.9 0.00 0.00 0.00 54 1014.2
20260504204503 25 223 4.8 12.9 0.00 0.00 0.00 55 1014.5
20260504203001 25 120 8.0 17.7 0.00 0.00 0.00 55 1014.6
20260504201613 25 133 8.0 14.5 0.00 0.00 0.00 54 1014.7
20260504200058 25 157 4.8 17.7 0.00 0.00 0.00 54 1015.0
20260504194558 25 179 8.0 16.1 0.00 0.00 0.00 54 1015.1
20260504193105 25 128 8.0 17.7 0.00 0.00 0.00 50 1015.4
20260504191608 25 135 8.0 17.7 0.00 0.00 0.00 50 1015.7
20260504190104 25 219 8.0 19.3 0.00 0.00 0.00 54 1015.9
20260504184552 25 177 8.0 19.3 0.00 0.00 0.00 51 1016.0
20260504183048 25 216 9.7 19.3 0.00 0.00 0.00 50 1015.8
20260504181555 25 200 9.7 16.1 0.00 0.00 0.00 50 1016.0
20260504180044 25 223 6.4 19.3 0.00 0.00 0.00 53 1016.1
20260504174544 25 182 4.8 17.7 0.00 0.00 0.00 53 1016.5
20260504173048 24 163 9.7 25.7 0.00 0.00 0.00 51 1016.8
20260504171541 24 206 9.7 20.9 0.00 0.00 0.00 50 1017.0
20260504081535 16 239 0.0 1.6 0.00 0.00 0.00 70 1016.9